Date String (YYYY-MM-DD hh:mm:ss) UTC,Instrument flags,Ambient pressure (hPa),Sample flow (lpm),Bypass flow (lpm),Sample temperature (°C),Ambient temperature (°C),ASC tube jacket temperature (°C),LED temperature (°C),Box temperature (°C),Sample RH (%),Span deviation,Mass concentration (μg/m³),Mass concentration (μg/m³),Mass concentration (μg/m³)
DateTimeUTC,F1_M11,P_M11,Q1_M11,Q2_M11,T1_M11,T2_M11,T3_M11,T4_M11,T5_M11,U1_M11,ZSPAN_M11,X0_M11,X2_M11,X1_M11
2021-12-19 21:00:00,,0822.3,5.02,0.00,25.9,24.9,00.0,34.9,27.6,03.5,0000.0,0002.47,0000.46,0000.39
2021-12-19 21:01:00,,0822.4,4.99,0.00,25.9,24.9,00.0,34.9,27.6,03.5,0000.0,0002.48,0000.46,0000.40
2021-12-19 21:02:00,,0822.4,5.00,0.00,25.8,24.9,00.0,34.9,27.5,03.5,0000.0,0002.54,0000.48,0000.41
2021-12-19 21:03:00,,0822.4,5.00,0.00,25.8,24.8,00.0,34.9,27.4,03.5,0000.0,0002.64,0000.51,0000.42
2021-12-19 21:04:00,,0822.3,5.00,0.00,25.8,24.8,00.0,34.9,27.4,03.6,0000.0,0002.64,0000.52,0000.43
2021-12-19 21:05:00,,0822.4,5.01,0.00,25.8,24.8,00.0,34.8,27.4,03.7,0000.0,0002.60,0000.50,0000.43
2021-12-19 21:06:00,,0822.3,5.00,0.00,25.8,24.8,00.0,34.8,27.4,03.7,0000.0,0002.66,0000.53,0000.44
2021-12-19 21:07:00,,0822.4,5.01,0.00,25.8,24.8,00.0,34.8,27.5,03.7,0000.0,0002.13,0000.55,0000.44
2021-12-19 21:08:00,,0822.4,5.00,0.00,25.8,24.7,00.0,34.8,27.4,03.7,0000.0,0001.50,0000.55,0000.44
2021-12-19 21:09:00,,0822.4,5.00,0.00,25.8,24.7,00.0,34.8,27.4,03.8,0000.0,0001.08,0000.54,0000.43
2021-12-19 21:10:00,,0822.4,5.01,0.00,25.8,24.8,00.0,34.8,27.4,03.8,0000.0,0000.98,0000.55,0000.43
2021-12-19 21:11:00,,0822.4,5.01,0.00,25.8,24.8,00.0,34.8,27.4,03.8,0000.0,0000.96,0000.57,0000.43
2021-12-19 21:12:00,,0822.4,4.99,0.00,25.8,24.7,00.0,34.8,27.4,03.8,0000.0,0001.03,0000.58,0000.42
2021-12-19 21:13:00,,0822.4,5.01,0.00,25.8,24.7,00.0,34.8,27.4,03.7,0000.0,0001.07,0000.60,0000.41
2021-12-19 21:14:00,,0822.4,4.99,0.00,25.8,24.7,00.0,34.8,27.4,03.7,0000.0,0001.01,0000.59,0000.40
2021-12-19 21:15:00,,0822.4,5.01,0.00,25.8,24.7,00.0,34.8,27.4,03.7,0000.0,0000.98,0000.57,0000.40
2021-12-19 21:16:00,,0822.4,5.00,0.00,25.8,24.7,00.0,34.8,27.4,03.7,0000.0,0001.19,0000.58,0000.40
2021-12-19 21:17:00,,0822.4,4.99,0.00,25.8,24.7,00.0,34.8,27.4,03.8,0000.0,0001.37,0000.57,0000.40
2021-12-19 21:18:00,,0822.4,5.01,0.00,25.8,24.7,00.0,34.8,27.4,03.8,0000.0,0001.38,0000.58,0000.41
2021-12-19 21:19:00,,0822.4,4.98,0.00,25.8,24.7,00.0,34.8,27.4,03.8,0000.0,0001.43,0000.60,0000.41
2021-12-19 21:20:00,,0822.4,5.01,0.00,25.8,24.7,00.0,34.8,27.4,03.8,0000.0,0001.47,0000.61,0000.42
2021-12-19 21:21:00,,0822.4,4.99,0.00,25.8,24.7,00.0,34.8,27.4,03.8,0000.0,0001.43,0000.60,0000.42
2021-12-19 21:22:00,,0822.5,4.99,0.00,25.8,24.7,00.0,34.8,27.4,03.8,0000.0,0001.36,0000.57,0000.42
2021-12-19 21:23:00,,0822.4,5.00,0.00,25.8,24.7,00.0,34.8,27.4,03.8,0000.0,0001.28,0000.54,0000.42
2021-12-19 21:24:00,,0822.4,5.01,0.00,25.8,24.7,00.0,34.8,27.4,03.8,0000.0,0001.27,0000.55,0000.42
2021-12-19 21:25:00,,0822.5,5.01,0.00,25.8,24.7,00.0,34.8,27.4,03.8,0000.0,0001.27,0000.55,0000.43
2021-12-19 21:26:00,,0822.6,4.99,0.00,25.8,24.7,00.0,34.8,27.4,03.8,0000.0,0001.26,0000.55,0000.42
2021-12-19 21:27:00,,0822.6,5.01,0.00,25.8,24.7,00.0,34.8,27.5,03.8,0000.0,0001.07,0000.56,0000.42
2021-12-19 21:28:00,,0822.6,5.00,0.00,25.8,24.7,00.0,34.8,27.5,03.8,0000.0,0001.03,0000.56,0000.41
2021-12-19 21:29:00,,0822.5,4.99,0.00,25.8,24.7,00.0,34.8,27.4,03.8,0000.0,0001.33,0000.58,0000.41
2021-12-19 21:30:00,,0822.5,5.00,0.00,25.8,24.8,00.0,34.8,27.4,03.9,0000.0,0001.30,0000.56,0000.41
2021-12-19 21:31:00,,0822.6,4.99,0.00,25.8,24.8,00.0,34.8,27.5,03.9,0000.0,0001.26,0000.55,0000.41
2021-12-19 21:32:00,,0822.5,5.01,0.00,25.8,24.8,00.0,34.8,27.5,03.9,0000.0,0001.26,0000.55,0000.41
2021-12-19 21:33:00,,0822.6,4.99,0.00,25.8,24.8,00.0,34.8,27.5,03.9,0000.0,0001.27,0000.55,0000.41
2021-12-19 21:34:00,,0822.6,5.02,0.00,25.8,24.8,00.0,34.8,27.5,03.9,0000.0,0001.28,0000.55,0000.41
2021-12-19 21:35:00,,0822.7,4.99,0.00,25.8,24.8,00.0,34.8,27.5,03.8,0000.0,0001.25,0000.54,0000.41
2021-12-19 21:36:00,,0822.7,5.01,0.00,25.8,24.8,00.0,34.8,27.5,03.8,0000.0,0001.24,0000.54,0000.40
2021-12-19 21:37:00,,0822.7,4.99,0.00,25.8,24.7,00.0,34.8,27.5,03.8,0000.0,0001.27,0000.54,0000.41
2021-12-19 21:38:00,,0822.7,4.99,0.00,25.8,24.8,00.0,34.8,27.5,03.8,0000.0,0001.25,0000.54,0000.41
2021-12-19 21:39:00,,0822.7,5.01,0.00,25.8,24.8,00.0,34.8,27.5,03.8,0000.0,0001.12,0000.54,0000.42
2021-12-19 21:40:00,,0822.8,5.00,0.00,25.8,24.8,00.0,34.8,27.4,03.8,0000.0,0000.93,0000.53,0000.42
2021-12-19 21:41:00,,0822.8,4.98,0.00,25.8,24.8,00.0,34.8,27.5,03.8,0000.0,0000.84,0000.53,0000.43
2021-12-19 21:42:00,,0822.8,5.01,0.00,25.8,24.8,00.0,34.8,27.5,03.8,0000.0,0000.84,0000.53,0000.43
2021-12-19 21:43:00,,0822.8,4.99,0.00,25.8,24.8,00.0,34.8,27.5,03.8,0000.0,0000.85,0000.53,0000.43
2021-12-19 21:44:00,,0822.7,5.00,0.00,25.8,24.8,00.0,34.8,27.5,03.8,0000.0,0000.95,0000.55,0000.43
2021-12-19 21:45:00,,0822.8,5.00,0.00,25.8,24.8,00.0,34.8,27.5,03.9,0000.0,0001.00,0000.57,0000.43
2021-12-19 21:46:00,,0822.8,5.01,0.00,25.8,24.8,00.0,34.8,27.5,03.9,0000.0,0001.02,0000.58,0000.44
2021-12-19 21:47:00,,0822.8,5.01,0.00,25.8,24.9,00.0,34.8,27.5,04.0,0000.0,0000.97,0000.56,0000.43
2021-12-19 21:48:00,,0822.7,5.00,0.00,25.8,24.8,00.0,34.8,27.4,04.0,0000.0,0000.98,0000.56,0000.44
2021-12-19 21:49:00,,0822.8,4.98,0.00,25.8,24.9,00.0,34.8,27.4,04.0,0000.0,0000.98,0000.56,0000.43
2021-12-19 21:50:00,,0822.8,5.01,0.00,25.8,24.9,00.0,34.8,27.5,03.9,0000.0,0000.94,0000.54,0000.43
2021-12-19 21:51:00,,0822.8,5.01,0.00,25.8,24.9,00.0,34.8,27.5,03.9,0000.0,0000.82,0000.52,0000.43
2021-12-19 21:52:00,,0822.8,5.00,0.00,25.8,24.9,00.0,34.8,27.5,03.9,0000.0,0000.80,0000.51,0000.42
2021-12-19 21:53:00,,0822.8,5.00,0.00,25.8,24.9,00.0,34.8,27.5,03.9,0000.0,0000.93,0000.53,0000.43
2021-12-19 21:54:00,,0822.9,4.99,0.00,25.8,24.9,00.0,34.8,27.5,03.8,0000.0,0000.92,0000.52,0000.43
2021-12-19 21:55:00,,0822.9,5.01,0.00,25.8,24.9,00.0,34.8,27.5,03.9,0000.0,0000.82,0000.51,0000.43
2021-12-19 21:56:00,,0823.0,4.99,0.00,25.8,24.9,00.0,34.8,27.5,03.9,0000.0,0000.80,0000.51,0000.44
2021-12-19 21:57:00,,0823.0,5.01,0.00,25.8,24.9,00.0,34.8,27.5,03.8,0000.0,0000.80,0000.52,0000.44
2021-12-19 21:58:00,,0823.0,4.99,0.00,25.8,24.8,00.0,34.8,27.5,03.9,0000.0,0000.80,0000.53,0000.45
2021-12-19 21:59:00,,0823.0,5.01,0.00,25.8,24.8,00.0,34.8,27.5,03.9,0000.0,0000.84,0000.53,0000.45
